Bigfork, MN

10:39 PM CDT on April 23, 2018 (GMT -0500)
Bigfork Municipal

Weather History for KFOZ - August, 2013

Change the Weather History Date:

Friday, August 30, 2013

  Actual Average (KGPZ) Record (KGPZ)
Temperature  
Mean Temperature 70 °F -  
Max Temperature 80 °F 75 °F 91 °F (1961)
Min Temperature 60 °F 51 °F 33 °F (1916)
Cooling Degree Days 5    
Growing Degree Days 20 (Base 50)    
Moisture  
Dew Point 62 °F    
Average Humidity 79    
Maximum Humidity 94    
Minimum Humidity 51    
Precipitation  
Precipitation 0.00 in - - ()
Sea Level Pressure  
Sea Level Pressure 29.96 in    
Wind  
Wind Speed 2 mph (NE)    
Max Wind Speed 7 mph    
Max Gust Speed -    
Visibility 10 miles    
Events      
Averages and records for this station are not official NWS values.
T = Trace of Precipitation, MM = Missing Value Source: NWS Daily Summary

Daily Weather History Graph

Daily Weather History Graph

Search for Another Location

Airport or City:

Astronomy

Aug. 30, 2013 Rise Set
Actual Time 6:30 AM CDT 7:58 PM CDT
Civil Twilight 5:58 AM CDT 8:30 PM CDT
Nautical Twilight 5:19 AM CDT 9:09 PM CDT
Astronomical Twilight 4:36 AM CDT 9:51 PM CDT
Moon 12:56 AM CDT (8/30) 4:27 PM CDT (8/30)
Length of Visible Light 14h 32m
Length of Day
13h 28m
Waning Crescent, 29% of the Moon is Illuminated
Aug 30
Waning Crescent
Sep 5
New
Sep 12
First Quarter
Sep 19
Full
Sep 26
Last Quarter

Hourly Weather History & Observations

Time (CDT) Temp. Heat Index Dew Point Humidity Pressure Visibility Wind Dir Wind Speed Gust Speed Precip Events Conditions
12:13 AM 64.4 °F - 62.6 °F 94% 29.90 in 10.0 mi Calm Calm - N/A   Clear
12:33 AM 66.2 °F - 64.4 °F 94% 29.90 in 10.0 mi Calm Calm - N/A   Mostly Cloudy
12:53 AM 66.2 °F - 64.4 °F 94% 29.91 in 10.0 mi Calm Calm - N/A   Mostly Cloudy
1:13 AM 66.2 °F - 62.6 °F 88% 29.91 in 10.0 mi Calm Calm - N/A   Mostly Cloudy
1:33 AM 66.2 °F - 64.4 °F 94% 29.92 in 10.0 mi Calm Calm - N/A   Overcast
1:53 AM 66.2 °F - 64.4 °F 94% 29.92 in 10.0 mi NNW 3.5 mph - N/A   Overcast
2:13 AM 66.2 °F - 62.6 °F 88% 29.92 in 10.0 mi Calm Calm - N/A   Mostly Cloudy
2:33 AM 64.4 °F - 62.6 °F 94% 29.92 in 10.0 mi NNW 3.5 mph - N/A   Scattered Clouds
2:53 AM 64.4 °F - 62.6 °F 94% 29.93 in 10.0 mi Calm Calm - N/A   Mostly Cloudy
3:13 AM 64.4 °F - 62.6 °F 94% 29.94 in 10.0 mi North 3.5 mph - N/A   Overcast
3:33 AM 64.4 °F - 62.6 °F 94% 29.94 in 10.0 mi NNW 4.6 mph - N/A   Mostly Cloudy
3:53 AM 64.4 °F - 62.6 °F 94% 29.95 in 10.0 mi NNW 4.6 mph - N/A   Mostly Cloudy
4:13 AM 64.4 °F - 62.6 °F 94% 29.95 in 10.0 mi North 3.5 mph - N/A   Overcast
4:33 AM 64.4 °F - 60.8 °F 88% 29.96 in 10.0 mi North 4.6 mph - N/A   Overcast
4:53 AM 62.6 °F - 60.8 °F 94% 29.96 in 10.0 mi NNW 4.6 mph - N/A   Overcast
5:13 AM 62.6 °F - 60.8 °F 94% 29.97 in 10.0 mi North 3.5 mph - N/A   Overcast
5:33 AM 62.6 °F - 60.8 °F 94% 29.96 in 10.0 mi North 4.6 mph - N/A   Overcast
5:53 AM 62.6 °F - 60.8 °F 94% 29.96 in 10.0 mi North 3.5 mph - N/A   Mostly Cloudy
6:13 AM 62.6 °F - 60.8 °F 94% 29.96 in 10.0 mi Calm Calm - N/A   Mostly Cloudy
6:33 AM 62.6 °F - 60.8 °F 94% 29.97 in 10.0 mi NNE 3.5 mph - N/A   Overcast
6:53 AM 62.6 °F - 60.8 °F 94% 29.98 in 10.0 mi NNE 4.6 mph - N/A   Overcast
7:13 AM 64.4 °F - 60.8 °F 88% 29.98 in 10.0 mi North 3.5 mph - N/A   Overcast
7:33 AM 64.4 °F - 60.8 °F 88% 29.99 in 10.0 mi North 3.5 mph - N/A   Overcast
7:53 AM 64.4 °F - 60.8 °F 88% 30.00 in 10.0 mi Calm Calm - N/A   Overcast
8:13 AM 64.4 °F - 60.8 °F 88% 30.01 in 10.0 mi NNE 3.5 mph - N/A   Overcast
8:33 AM 64.4 °F - 60.8 °F 88% 30.01 in 10.0 mi Calm Calm - N/A   Overcast
8:53 AM 66.2 °F - 62.6 °F 88% 30.01 in 10.0 mi NE 3.5 mph - N/A   Overcast
9:13 AM 66.2 °F - 62.6 °F 88% 30.02 in 10.0 mi NE 3.5 mph - N/A   Overcast
9:33 AM 68.0 °F - 60.8 °F 78% 30.02 in 10.0 mi ENE 6.9 mph - N/A   Mostly Cloudy
9:53 AM 68.0 °F - 62.6 °F 83% 30.02 in 10.0 mi NE 5.8 mph - N/A   Mostly Cloudy
10:13 AM 69.8 °F - 62.6 °F 78% 30.02 in 10.0 mi NE 4.6 mph - N/A   Mostly Cloudy
10:33 AM 69.8 °F - 62.6 °F 78% 30.02 in 10.0 mi NE 5.8 mph - N/A   Scattered Clouds
10:53 AM 71.6 °F - 62.6 °F 73% 30.02 in 10.0 mi NE 4.6 mph - N/A   Scattered Clouds
11:13 AM 71.6 °F - 62.6 °F 73% 30.02 in 10.0 mi East 5.8 mph - N/A   Clear
11:33 AM 73.4 °F - 62.6 °F 69% 30.02 in 10.0 mi ENE 4.6 mph - N/A   Clear
11:53 AM 73.4 °F - 62.6 °F 69% 30.02 in 10.0 mi ESE 4.6 mph - N/A   Clear
12:13 PM 75.2 °F - 62.6 °F 65% 30.01 in 10.0 mi SE 3.5 mph - N/A   Clear
12:33 PM 75.2 °F - 62.6 °F 65% 30.01 in 10.0 mi ESE 3.5 mph - N/A   Clear
12:53 PM 78.8 °F - 64.4 °F 61% 30.00 in 10.0 mi NE 5.8 mph - N/A   Clear
1:13 PM 78.8 °F - 62.6 °F 57% 30.01 in 10.0 mi ESE 5.8 mph - N/A   Clear
1:33 PM 78.8 °F - 62.6 °F 57% 30.00 in 10.0 mi ENE 4.6 mph - N/A   Clear
1:53 PM 80.6 °F 81.8 °F 62.6 °F 54% 30.00 in 10.0 mi East 3.5 mph - N/A   Clear
2:13 PM 80.6 °F 81.8 °F 62.6 °F 54% 30.00 in 10.0 mi Calm Calm - N/A   Clear
2:33 PM 80.6 °F 81.8 °F 62.6 °F 54% 29.99 in 10.0 mi Calm Calm - N/A   Clear
2:53 PM 80.6 °F 81.8 °F 62.6 °F 54% 29.99 in 10.0 mi South 4.6 mph - N/A   Clear
3:13 PM 80.6 °F 81.8 °F 62.6 °F 54% 29.98 in 10.0 mi Calm Calm - N/A   Clear
3:33 PM 80.6 °F 81.8 °F 62.6 °F 54% 29.98 in 10.0 mi ESE 4.6 mph - N/A   Clear
3:53 PM 80.6 °F 81.5 °F 60.8 °F 51% 29.98 in 10.0 mi Calm Calm - N/A   Clear
4:13 PM 80.6 °F 81.8 °F 62.6 °F 54% 29.97 in 10.0 mi South 4.6 mph - N/A   Clear
4:33 PM 80.6 °F 81.8 °F 62.6 °F 54% 29.97 in 10.0 mi SSE 4.6 mph - N/A   Clear
4:53 PM 80.6 °F 81.8 °F 62.6 °F 54% 29.96 in 10.0 mi South 3.5 mph - N/A   Clear
5:13 PM 80.6 °F 81.8 °F 62.6 °F 54% 29.95 in 10.0 mi SE 5.8 mph - N/A   Clear
5:33 PM 80.6 °F 81.8 °F 62.6 °F 54% 29.95 in 10.0 mi SE 3.5 mph - N/A   Clear
5:53 PM 80.6 °F 81.8 °F 62.6 °F 54% 29.95 in 10.0 mi Calm Calm - N/A   Clear
6:13 PM 80.6 °F 81.8 °F 62.6 °F 54% 29.94 in 10.0 mi Calm Calm - N/A   Clear
6:33 PM 80.6 °F 81.8 °F 62.6 °F 54% 29.94 in 10.0 mi Calm Calm - N/A   Clear
6:53 PM 78.8 °F - 64.4 °F 61% 29.93 in 10.0 mi Calm Calm - N/A   Clear
7:13 PM 73.4 °F - 64.4 °F 73% 29.93 in 10.0 mi Calm Calm - N/A   Clear
7:33 PM 71.6 °F - 64.4 °F 78% 29.93 in 10.0 mi Calm Calm - N/A   Clear
7:53 PM 69.8 °F - 64.4 °F 83% 29.92 in 10.0 mi Calm Calm - N/A   Clear
8:13 PM 69.8 °F - 64.4 °F 83% 29.92 in 10.0 mi Calm Calm - N/A   Clear
8:33 PM 66.2 °F - 64.4 °F 94% 29.92 in 10.0 mi Calm Calm - N/A   Clear
8:53 PM 66.2 °F - 62.6 °F 88% 29.92 in 10.0 mi Calm Calm - N/A   Clear
9:13 PM 64.4 °F - 62.6 °F 94% 29.93 in 10.0 mi Calm Calm - N/A   Clear
9:34 PM 64.4 °F - 62.6 °F 94% 29.92 in 10.0 mi Calm Calm - N/A   Clear
9:53 PM 64.4 °F - 60.8 °F 88% 29.92 in 10.0 mi Calm Calm - N/A   Clear
10:13 PM 62.6 °F - 60.8 °F 94% 29.91 in 10.0 mi Calm Calm - N/A   Clear
10:33 PM 62.6 °F - 60.8 °F 94% 29.91 in 5.0 mi Calm Calm - N/A   Clear
10:53 PM 60.8 °F - 59.0 °F 94% 29.91 in 0.8 mi Calm Calm - N/A   Mist
11:13 PM 60.8 °F - 59.0 °F 94% 29.91 in 4.0 mi Calm Calm - N/A   Clear
11:33 PM 60.8 °F - 59.0 °F 94% 29.91 in 1.5 mi Calm Calm - N/A   Mist
11:54 PM 64.4 °F - 62.6 °F 94% 29.90 in 10.0 mi SSE 5.8 mph - N/A   Clear